Flag for India Weather past 2 weeks in Virudhunagar, Tamil Nadu, India

Now
90 °F

Passing clouds.


Feels Like: 93 °F
Forecast: 79 / 100 °F
Wind: 13 mph from Northwest

Location: Tiruchchirapalli

Current Time: Jul 6, 2015 at 9:20:27 PM

Latest Report: Jul 6, 2015 at 8:40 PM


Visibility: 4 mi

Pressure: 29.71 "Hg

Humidity: 49%

Dew point: 68 °F

Location of VirudhunagarLocation

Historic Weather in Virudhunagar — Graph

°F

Virudhunagar temperature yesterday

Maximum temperature yesterday: 100 °F (at 1:40 PM)
Minimum temperature yesterday: 82 °F (at 4:40 AM)
Average temperature yesterday: 91 °F

Past Weeks' High & Low Weather Summary

 TemperatureHumidityPressure
High104 °F (Jul 2, 3:40 PM)84% (Jun 23, 6:40 AM)29.86 "Hg (Jun 23, 6:40 AM)
Low79 °F (Jun 24, 5:40 AM)31% (Jul 1, 2:40 PM)29.62 "Hg (Jun 22, 3:40 PM)
Average90 °F55%29.75 "Hg
* Reported Jun 21 7:40 PM — Jul 6 7:40 PM, Virudhunagar, Weather by CustomWeather, © 2015

Note: Actual official high and low records may vary slightly from our data, if they occured in-between our weather recording intervals... More about our weather records

Advertising

Virudhunagar weather history for previous 24 hours

 ConditionsComfort  
Time TempWeatherWind HumidityBarometerVisibility
7:40 PM
Mon, Jul 6
91 °FPassing clouds.10 mph46%29.71 "Hg4 mi
7:10 PM95 °FScattered clouds.12 mph39%29.68 "Hg4 mi
6:40 PM95 °FScattered clouds.14 mph39%29.68 "Hg5 mi
6:10 PM97 °FPassing clouds.15 mph37%29.68 "Hg5 mi
3:10 PM100 °FPassing clouds.23 mph33%29.65 "Hg5 mi
2:40 PM100 °FPassing clouds.16 mph33%29.68 "Hg5 mi
2:10 PM100 °FPassing clouds.16 mph33%29.68 "Hg5 mi
1:40 PM99 °FPassing clouds.17 mph35%29.68 "Hg4 mi
1:10 PM99 °FPassing clouds.17 mph35%29.71 "Hg4 mi
12:40 PM97 °FPassing clouds.20 mph34%29.71 "Hg4 mi
12:10 PM95 °FPassing clouds.20 mph39%29.71 "Hg4 mi
11:40 AM93 °FHaze.20 mph41%29.74 "Hg3 mi
11:10 AM93 °FHaze.21 mph41%29.74 "Hg3 mi
10:40 AM93 °FHaze.21 mph41%29.74 "Hg3 mi
10:10 AM91 °FHaze.20 mph44%29.74 "Hg3 mi
9:40 AM90 °FHaze.23 mph49%29.74 "Hg3 mi
9:10 AM90 °FHaze.17 mph52%29.77 "Hg3 mi
8:40 AM88 °FHaze.16 mph55%29.77 "Hg3 mi
8:10 AM86 °FHaze.14 mph59%29.74 "Hg3 mi
7:40 AM84 °FHaze.14 mph62%29.74 "Hg3 mi
7:10 AM84 °FHaze.13 mph62%29.74 "Hg3 mi
6:40 AM84 °FHaze.13 mph62%29.74 "Hg3 mi
6:10 AM82 °FHaze.12 mph70%29.71 "Hg3 mi
5:40 AM82 °FHaze.12 mph66%29.71 "Hg3 mi
4:40 AM82 °FPassing clouds.9 mph66%29.71 "Hg4 mi
4:10 AM82 °FPassing clouds.12 mph66%29.71 "Hg4 mi
3:40 AM84 °FPassing clouds.12 mph62%29.71 "Hg4 mi
3:10 AM84 °FPassing clouds.12 mph62%29.71 "Hg4 mi
2:40 AM84 °FPassing clouds.12 mph62%29.71 "Hg4 mi
2:10 AM84 °FPassing clouds.9 mph66%29.71 "Hg4 mi
1:40 AM84 °FPassing clouds.12 mph66%29.71 "Hg4 mi
1:10 AM84 °FPassing clouds.12 mph66%29.71 "Hg4 mi
12:40 AM84 °FPassing clouds.12 mph66%29.74 "Hg4 mi
12:10 AM86 °FPassing clouds.12 mph62%29.74 "Hg4 mi
11:40 PM
Sun, Jul 5
86 °FPassing clouds.8 mph62%29.74 "Hg4 mi
11:10 PM88 °FPassing clouds.9 mph59%29.74 "Hg4 mi
10:40 PM88 °FPassing clouds.9 mph59%29.74 "Hg4 mi
10:10 PM88 °FPassing clouds.9 mph59%29.74 "Hg4 mi
9:40 PM88 °FPassing clouds.9 mph59%29.74 "Hg4 mi
9:10 PM90 °FPassing clouds.9 mph55%29.74 "Hg4 mi
Weather by CustomWeather, © 2015

See weather overviewHow to use our weather pages